Terug naar catalogus

STARLINK-11194

ActiefCommunicatieVLEO
NORAD 60187·PAYLOAD·🇺🇸 United States

Gelanceerd Jul 3, 2024 vanaf Cape Canaveral Space Force Station

Loading…

Volgende Passages (komende 24 uur)

TLE

VersSource: CelesTrak SupGP

Epoch: Sep 14, 2026, 14:01 UTC

1 60187C 24124E   26257.58451389  .00084675  00000+0  69743-3 0  2578
2 60187  53.1570 309.7643 0001243  68.4671  30.0445 15.69669244    18

Volg STARLINK-11194 in realtime met AllMySat

Download on the App Store